Weather History for Cajamarca, Peru

Change the Weather History Date:

Friday, February 22, 2013

  Actual Average Record
Temperature  
Mean Temperature 58 °F -  
Max Temperature 68 °F - - ()
Min Temperature 48 °F - - ()
Degree Days  
Heating Degree Days 7    
Growing Degree Days 8 (Base 50)    
Moisture  
Dew Point 53 °F    
Average Humidity 82    
Maximum Humidity 100    
Minimum Humidity 56    
Precipitation  
Precipitation 0.00 in - - ()
Sea Level Pressure  
Sea Level Pressure 30.33 in    
Wind  
Wind Speed 3 mph ()    
Max Wind Speed 7 mph    
Max Gust Speed -    
Visibility 5.6 miles    
Events Fog , Rain    
T = Trace of Precipitation, MM = Missing Value Source: Averaged Metar Reports

Daily Weather History Graph

Daily Weather History Graph

Search for Another Location

Airport:

Trip Planner

Search our weather history database for the weather conditions in past years. The results will help you decide how hot, cold, wet, or windy it might be!

Date:

Astronomy

Feb. 22, 2013 Rise Set
Actual Time 6:18 AM PET 6:35 PM PET
Civil Twilight 5:57 AM PET 6:56 PM PET
Nautical Twilight 5:33 AM PET 7:21 PM PET
Astronomical Twilight 5:08 AM PET 7:46 PM PET
Moon 4:12 PM PET (2/22) 3:30 AM PET (2/22)
Length of Visible Light 12h 59m
Length of Day
12h 16m
Waxing Gibbous, 90% of the Moon is Illuminated
Feb 22
Waxing Gibbous
Feb 25
Full
Mar 4
Last Quarter
Mar 11
New
Mar 19
First Quarter

Hourly Weather History & Observations

Time (PET) Temp. Dew Point Humidity Pressure Visibility Wind Dir Wind Speed Gust Speed Precip Events Conditions
4:00 AM 52 °F 52 °F 99%  in 6 mi East 3.5 mph - -   Partly Cloudy
4:00 AM 51.8 °F 51.8 °F 100% 30.30 in 6.2 mi East 3.5 mph - N/A   Overcast
5:00 AM 51.8 °F 51.8 °F 100% 30.30 in 6.2 mi NNE 3.5 mph - N/A   Overcast
6:00 AM 51.8 °F 51.8 °F 100% 30.30 in 6.2 mi Calm Calm - N/A   Scattered Clouds
6:30 AM 51.8 °F 51.8 °F 100% 30.33 in 6.2 mi Calm Calm - N/A   Scattered Clouds
7:00 AM 52 °F 52 °F 99%  in 6 mi Calm Calm - -   Partly Cloudy
7:00 AM 51.8 °F 51.8 °F 100% 30.36 in 6.2 mi Calm Calm - N/A   Scattered Clouds
7:30 AM 51.8 °F 48.2 °F 88% 30.36 in 6.2 mi Calm Calm - N/A   Mostly Cloudy
8:00 AM 53.6 °F 50.0 °F 88% 30.39 in 6.2 mi Calm Calm - N/A   Mostly Cloudy
8:30 AM 53.6 °F 50.0 °F 88% 30.39 in 6.2 mi Calm Calm - N/A   Mostly Cloudy
9:00 AM 57.2 °F 50.0 °F 77% 30.42 in 6.2 mi ESE 3.5 mph - N/A   Overcast
9:30 AM 57.2 °F 51.8 °F 82% 30.42 in 6.2 mi Variable 2.3 mph - N/A   Overcast
10:00 AM 63 °F 51 °F 56%  in 6 mi WSW 3.5 mph - -   Partly Cloudy
10:00 AM 62.6 °F 51.8 °F 68% 30.39 in 6.2 mi WSW 3.5 mph - N/A   Scattered Clouds
10:30 AM 64.4 °F 51.8 °F 64% 30.39 in 6.2 mi SSE 3.5 mph - N/A   Mostly Cloudy
11:00 AM 64.4 °F 53.6 °F 68% 30.39 in 6.2 mi South 4.6 mph - N/A   Mostly Cloudy
11:30 AM 64.4 °F 53.6 °F 68% 30.39 in 6.2 mi South 4.6 mph - N/A   Mostly Cloudy
12:00 PM 66.2 °F 53.6 °F 64% 30.36 in 6.2 mi SSE 5.8 mph - N/A   Mostly Cloudy
12:30 PM 66.2 °F 57.2 °F 73% 30.36 in 6.2 mi NW 4.6 mph - N/A   Mostly Cloudy
1:00 PM 66 °F 55 °F 60%  in 6 mi WNW 5.8 mph - -   Overcast
1:00 PM 66.2 °F 55.4 °F 68% 30.33 in 6.2 mi WNW 5.8 mph - N/A   Mostly Cloudy
1:30 PM 66.2 °F 53.6 °F 64% 30.30 in 6.2 mi Variable 2.3 mph - N/A   Mostly Cloudy
2:00 PM 68.0 °F 53.6 °F 60% 30.30 in 6.2 mi WNW 5.8 mph - N/A   Scattered Clouds
2:30 PM 68.0 °F 51.8 °F 56% 30.27 in 5.0 mi NW 4.6 mph - N/A Fog Patches of Fog
3:00 PM 62.6 °F 57.2 °F 82% 30.27 in 3.7 mi NNE 4.6 mph - N/A Rain Rain
3:30 PM 60.8 °F 57.2 °F 88% 30.24 in 5.0 mi Variable 2.3 mph - N/A Fog Patches of Fog
4:00 PM 60 °F 58 °F 90%  in 4 mi NNE 6.9 mph - - Rain Light Rain
4:00 PM 60.8 °F 57.2 °F 88% 30.27 in 4.3 mi NNE 6.9 mph - N/A Rain Light Rain
4:30 PM 59.0 °F 57.2 °F 94% 30.27 in 2.5 mi SE 6.9 mph - N/A Rain Light Rain
5:00 PM 57.2 °F 55.4 °F 94% 30.27 in 4.3 mi South 4.6 mph - N/A Rain Light Rain
5:30 PM 57.2 °F 55.4 °F 94% 30.27 in 5.0 mi Variable 2.3 mph - N/A Rain Light Rain
6:00 PM 57.2 °F 55.4 °F 94% 30.30 in 5.0 mi Variable 2.3 mph - N/A Rain Light Rain